If you wish to contribute or participate in the discussions about articles you are invited to join SKYbrary as a registered user

 Actions

Istanbul/Sabiha Gökçen International Airport

From SKYbrary Wiki

LTFJ
Airport
ICAO: LTFJ – IATA: SAW
Summary
Name Istanbul/Sabiha Gökçen International Airport
Region Europe
Territory Turkey TR.gif
Location Sanayi, Istanbul
Serving Istanbul
Elevation 95.098 m <br />312 ft <br />312 ft95.098 m <br />
Coordinates 40° 54' 19.33" N, 29° 19' 0.70" E
Runways
Designator Length Width Surface ROPS
6/24 3000 m9,842.52 ft <br /> 45 m147.638 ft <br /> CON yes/yes


METAR
Observation LTFJ 102020Z 04012KT CAVOK 10/06 Q1020 NOSIG
Station Istanbul / Sabiha Gokcen
Date/Time 10 May 2021 20:20:00
Wind direction 40°
Wind speed 12 kts
Lowest cloud amount clouds and visibility OK
Temperature 10°C
Dew point 6°C
Humidity 76%
QNH 1020 hPa
Weather condition n/a

Istanbul Sabiha Gökçen International Airport is one of three international airports serving Istanbul, the largest city in Turkey.

Climatology

Dry-summer subtropical ”Mediterranean" climate (Köppen climate classification Csa)

Maps

Terrain

Loading map...

Airport Layout

Loading map...


Accidents & Serious Incidents at or in vicinity of LTFJ

None on SKYbrary